sat.trackr.live / text

‹ back to catalog

SHIYAN-20C (SY-20C)

NORAD 54214 · 2022-142A

PAYLOAD ACTIVE UNKNOWN

§ Identity

Operator
Country
PRC
Launch date
2022-10-29
Launch site
JSC
Launch vehicle
Mass (kg)
RCS (m²)

External: N2YO · Heavens-Above · Gunter

§ Orbital elements

Epoch: 2026-09-20T18:44:54.453984Z

Period
100.73 min
Inclination
59.9983°
Eccentricity
0.0022144
Mean motion
14.29574894 rev/d
Perigee alt
777.3 km
Apogee alt
809.0 km
Semi-major
7,171.3 km
B*
3.0884e-5
RAAN
344.4040°
Arg perigee
44.3134°
Mean anomaly
315.9669°
Rev number
20,336

§ Raw data

SHIYAN-20C (SY-20C)1 54214U 22142A   26263.78118581 -.00000057  00000+0  30884-4 0  99942 54214  59.9983 344.4040 0022144  44.3134 315.9669 14.29574894203368

JSON: /api/v1/satellites/54214 · /tle

For live sub-satellite position, see the globe view (requires WebGL).

§ Visibility from observer

Set your observer location to see the next 7 days of passes ≥ 10°. The values pass through the URL so the page stays shareable.

No JS? Fill the form by hand. The geolocation button needs JavaScript.